Home   Weather   Koszalin   Past weeks

Flag for Poland Past Weather in Koszalin, Poland — Yesterday and Last 2 Weeks

Now
37 °F

Overcast.


Feels Like: 34 °F
Forecast: 34 / 35 °F
Wind: 5 mph from West

Location: Koszalin

Current Time: Jan 20, 2017 at 7:31:00 pm

Latest Report: Jan 20, 2017 at 6:00 pm


Visibility: 6 mi

Pressure: 30.43 "Hg

Humidity: 92%

Dew Point: 35 °F

Location of KoszalinLocation

Past Weather in Koszalin — Graph

°F

Koszalin Temperature Yesterday

Maximum temperature yesterday: 33 °F (at 11:00 pm)
Minimum temperature yesterday: 28 °F (at 8:00 am)
Average temperature yesterday: 30 °F

High & Low Weather Summary for the Past Weeks

 TemperatureHumidityPressure
High38 °F (Jan 12, 5:00 am)97% (Jan 13, 2:00 pm)30.72 "Hg (Jan 13, 2:00 pm)
Low17 °F (Jan 11, 6:00 am)44% (Jan 5, 6:00 pm)29.12 "Hg (Jan 13, 12:00 pm)
Average28 °F86%30.14 "Hg
* Reported Jan 5 6:00 pm — Jan 20 6:00 pm, Koszalin, Weather by CustomWeather, © 2017

Note: Actual official high and low records may vary slightly from our data, if they occured in-between our weather recording intervals... More about our weather records

Advertising

Koszalin Weather History for the Previous 24 Hours

Scroll right to see more
 ConditionsComfort  
Time TempWeatherWind HumidityBarometerVisibility
6:00 pm
Fri, Jan 20
37 °FOvercast.5 mph92%30.43 "Hg6 mi
5:00 pm37 °FFog.5 mph92%30.43 "Hg5 mi
4:00 pm37 °FFog.3 mph95%30.43 "Hg4 mi
3:00 pm36 °FFog.5 mph97%30.43 "Hg2 mi
2:00 pm36 °FFog.5 mph97%30.44 "Hg1 mi
1:00 pm36 °FDrizzle. Low clouds.5 mph97%30.45 "Hg1 mi
12:00 pm36 °FDrizzle. Low clouds.5 mph97%30.46 "Hg1 mi
11:00 am35 °FDrizzle. Low clouds.3 mph97%30.48 "Hg1 mi
10:00 am35 °FDrizzle. Low clouds.5 mph97%30.48 "Hg1 mi
9:00 am35 °FDrizzle. Low clouds.5 mph97%30.48 "Hg1 mi
8:00 am35 °FFog.3 mph97%30.48 "Hg1 mi
7:00 am34 °FFog.3 mph97%30.48 "Hg1 mi
6:00 am34 °FFog.3 mph97%30.49 "Hg0 mi
5:00 am34 °FFog.3 mph97%30.50 "Hg0 mi
4:00 am34 °FFog.5 mph97%30.50 "Hg0 mi
3:00 am34 °FFog.5 mph97%30.51 "Hg0 mi
2:00 am34 °FFog.5 mph97%30.51 "Hg1 mi
1:00 am33 °FFog.5 mph97%30.50 "Hg1 mi
12:00 am33 °FFog.5 mph96%30.52 "Hg1 mi
11:00 pm
Thu, Jan 19
33 °FFog.5 mph96%30.53 "Hg1 mi
10:00 pm33 °FFog.3 mph95%30.53 "Hg2 mi
9:00 pm33 °FFog.3 mph95%30.53 "Hg2 mi
8:00 pm32 °FLow clouds.5 mph95%30.53 "Hg3 mi
7:00 pm32 °FLight freezing rain. Low clouds.5 mph95%30.54 "Hg2 mi
Weather by CustomWeather, © 2017

See weather overviewHow to use our weather pages